Simultaneous Nadir Overpasses (SNOs) Predictions

Prediction of SNOs between GOES-17 and NOAA-19 Satellite Orbit:

Table of predicted SNOs for the next 14.0 days since TLE Epoch: 6/24/2023
Index Date Time (GOES-17) GOES-17 Lat,Lon NOAA-19 Lat,Lon Distance(km) Time Diff (sec)
1 06/24/2023 15:39:14 0.01,-104.74 0.30,-105.93 136.76 80
2 06/25/2023 15:29:51 0.01,-104.74 -0.38,-103.00 198.35 80
3 06/28/2023 03:49:58 -0.01,-104.71 -0.73,-107.78 350.37 80
4 06/29/2023 03:37:56 -0.01,-104.71 -0.06,-104.85 15.76 80
5 06/30/2023 03:23:13 -0.01,-104.71 0.62,-101.91 318.94 80
6 07/02/2023 15:43:17 0.00,-104.75 0.43,-106.69 221.15 80
7 07/03/2023 15:33:54 0.00,-104.74 -0.20,-103.74 113.42 80
8 07/04/2023 15:21:51 0.00,-104.74 -0.90,-100.82 447.93 80
9 07/06/2023 03:54:01 -0.00,-104.70 -0.91,-108.52 437.00 80
10 07/07/2023 03:41:59 0.00,-104.70 -0.22,-105.59 102.54 80
